THORAD DELTA 1 DEB, 8168

Orbit data source: Space-Track

THORAD DELTA 1 DEB, 8168 is space debris in SSO originally from a launch on Fri, 15 Nov 1974 UTC launched from the Air Force Western Test Range (AFWTR). Debris objects in space refer to the collection of defunct objects orbiting the Earth. Examples of debris include non-operational satellites, rocket bodies, and fragments generated from explosions, collisions, or faulty payload assembly.

Loading next visibility...
Identifier
8168, 1974-089AJ
Orbit
SSO
Last TLE update
10 hours ago
Origin
Manufacturer
Unknown
Mission
Spacecraft
Bus & Motor
Unknown
Mass
Unknown
Launch date (UTC)
1974-11-15 (51 years ago)
Launch vehicle
Unknown
Launch site
Air Force Western Test Range (AFWTR)
Object type
Payload
Rocket body
Debris
Shape & HBR
Unknown
Radar Cross Section
0.280 m², Medium (>0.1 m² and < 1m²)

Expand to show TLE details & history

TLE from 10 hours ago
0 THORAD DELTA 1 DEB
1 08168U 74089AJ  25191.65128404 -.00000046  00000-0 -82122-6 0  9992
2 08168 101.9066 152.7171 0020560 213.7364 319.5647 12.52730508315772
Epoch: 2025-07-10T15:37Z
TLE epoch observation values (Epoch: 2025-07-10T15:37:50.941Z)
Latitude
6.63664°
Longitude
170.83921°
Altitude
1,442.808 km
Speed
7.146 km/s
True Right ascension
22h 16m 27s
True Declination
6° 36' 03"
Sunlit
Object was in full shadow at epoch
Visualization orbit readout
Latitude
-17.51659°
Longitude
-6.32539°
Altitude
1,469.776 km
Speed
7.123 km/s
Apparent Right ascension
07h 46m 48s
Apparent Declination
-44° 41' 40"
Sunlit
Object is in daylight
Visualization observer readout
Local Sidereal Time
14:23:15
Azimuth
236.352° WSW
Elevation
-32.526°
Doppler factor
1
Orbital elements
Apogee altitude
1,466.743 km
Perigee altitude
1,434.551 km
Semi-major axis
7,828.784 km
Eccentricity
0.00206
Inclination
101.9066°
RAAN
152.7171°
Arg. of periapsis
213.7364°
True anomaly
Unknown
Mean anomaly
319.5647°
Eccentric anomaly
Unknown
Mean motion
3.1333 °/min
Orbital period
114.89 mins
BSTAR
-8.2122e-7
Loading maneuver chart data...
Loading SW <> Apogee altitude chart data...
Loading historical data...
Loading historical data...
Loading historical data...
Loading historical data...
Loading historical data...
Loading historical data...
Loading historical data...

THORAD DELTA 1 DEB Visibility forecast

Observer location: undefined°, undefined°

Span
Click to sort rows by Start time (UTC) header in descending order
Start Az.
Max El. time (UTC)
Max El. Az.
Max El.
End time (UTC)
End Az.
9 mins2025-07-11 08:38:45.471Z56.727° ENE2025-07-11 08:42:45.471Z87.592° E16.561°2025-07-11 08:47:45.471Z126.862° SE
15 mins2025-07-11 10:29:45.471Z17.521° NNE2025-07-11 10:36:45.471Z14.265° NNE44.955°2025-07-11 10:44:45.471Z200.094° SSW
9 mins2025-07-11 12:24:45.471Z341.742° N2025-07-11 12:28:45.471Z307.466° NW19.892°2025-07-11 12:33:45.471Z267.386° W
11 mins2025-07-11 19:37:45.471Z102.472° ESE2025-07-11 19:42:45.471Z59.419° ENE24.904°2025-07-11 19:48:45.471Z6.91° NNE
14 mins2025-07-11 21:28:45.471Z172.974° S2025-07-11 21:34:45.471Z233.355° WSW43.183°2025-07-11 21:42:45.471Z337.336° NNW
4 mins2025-07-11 23:27:45.471Z260.524° W2025-07-11 23:29:45.471Z275.194° WNW11.567°2025-07-11 23:31:45.471Z289.539° WNW
|